Regional Weather Roundup
Issued by NWS

Home | Current Version | Previous Version | Text Only | Print | Product List | Glossary On
Versions: 1 2 3 4 5 6 7 8 9 10 11 12 13 14 15 16 17 18 19 20 21 22 23 24 25 26 27 28 29 30 31 32 33 34 35 36 37 38 39 40 41 42 43 44 45 46 47 48 49 50
000
ASUS43 KIND 191309
RWRIN

WEATHER ROUNDUP FOR INDIANA
NATIONAL WEATHER SERVICE INDIANAPOLIS IN
800 AM EST FRI DEC 19 2014

NOTE: "FAIR" INDICATES FEW OR NO CLOUDS BELOW 12,000 FEET WITH NO
SIGNIFICANT WEATHER AND/OR OBSTRUCTIONS TO VISIBILITY.

* - STATION DOES NOT REPORT WEATHER SUCH AS PRECIPITATION OR FOG.

+ - STATION NOT QUALITY CONTROLLED BY THE NATIONAL WEATHER SERVICE.
    USE DATA WITH CAUTION...ESPECIALLY DEWPOINT AND RELATIVE
    HUMIDITY OBSERVATIONS.

INZ001>003-010>013-019-020-191400-
NORTHWEST INDIANA

CITY           SKY/WX    TMP DP  RH WIND       PRES   REMARKS
GARY /AIRPORT/ CLOUDY    30  23  74 W5        30.29R WCI  25
KNOX *+        CLOUDY    28  23  80 W5        30.26R WCI  23
LA PORTE +     CLOUDY    31  27  86 W3        30.27R
MICHIGAN CITY+ CLOUDY    32  21  64 N6        30.27S WCI  26
MONTICELLO +   CLOUDY    26  23  89 SW5       30.28R WCI  20
RENSSELAER +   CLOUDY    28  27  93 W6        30.29R WCI  22
VALPARAISO     CLOUDY    28  23  81 W6        30.27R WCI  22

$$

LMZ046-743>745-191400-
SOUTHERN LAKE MICHIGAN

STATION/POSITION TIME  TEMP WIND        PRES
                       AIR  DIR/SP/G
                 (UTC) (F)  (DEG/KT/KT) (MB)

$$

INZ004-005-014>016-021>024-191400-
NORTH CENTRAL INDIANA

CITY           SKY/WX    TMP DP  RH WIND       PRES   REMARKS
ELKHART        CLOUDY    27  21  80 CALM      30.27R
GOSHEN         CLOUDY    27  23  85 CALM      30.25R
LOGANSPORT +   CLOUDY    27  21  80 W5        30.29R WCI  21
PERU/GRISSOM   CLOUDY    26  25  98 NW5       30.27R WCI  20
ROCHESTER +    MOCLDY    30  28  93 W5        30.27S WCI  25
SOUTH BEND     CLOUDY    29  25  85 CALM      30.26R
WARSAW +       CLOUDY    27  25  93 CALM      30.26R

$$

INZ006>009-017-018-025>027-191400-
NORTHEAST INDIANA

CITY           SKY/WX    TMP DP  RH WIND       PRES   REMARKS
ANGOLA *+      CLOUDY    27  25  93 W6        30.24R WCI  20
AUBURN +       CLOUDY    28  25  86 W3        30.26S
FORT WAYNE     CLOUDY    26  22  84 W5        30.27S FOG     WCI  20
HUNTINGTON +   CLOUDY    26  22  86 CALM      30.27R

$$

INZ028-029-035-036-043>045-051>053-191400-
WEST CENTRAL INDIANA

CITY           SKY/WX    TMP DP  RH WIND       PRES   REMARKS
GREENCASTLE +  CLEAR     21  18  86 CALM      30.28S
LAFAYETTE      CLOUDY    22  20  92 CALM      30.29S
TERRE HAUTE    CLEAR     23  19  85 N5        30.29S WCI  17

$$

INZ030>032-037>040-046>048-054>057-064-065-191400-
CENTRAL INDIANA

CITY           SKY/WX    TMP DP  RH WIND       PRES   REMARKS
CP ATTERBURY + CLEAR     19  18  93 MISG      30.29S
COLUMBUS       CLEAR     21  21 100 CALM      30.29S
FRANKFORT +    CLOUDY    24  22  91 CALM      30.29S
GREENWOOD *+   MOCLDY    21  18  86 CALM      30.27F
INDIANAPOLIS   PTCLDY    20  17  88 N5        30.26F WCI  13
-EAGLE CREEK   CLOUDY    22  19  89 N5        30.26F WCI  16
KOKOMO *+      CLOUDY    27  19  74 W5        30.27S WCI  21
MARION +       CLOUDY    26  23  89 W3        30.28R
MT COMFORT *+  MOCLDY    25  21  86 NW5       30.28S WCI  19
SHELBYVILLE    CLOUDY    24  20  84 NW3       30.27F
ZIONSVILLE +   CLOUDY    25  20  82 N6        30.27F WCI  18

$$

INZ033-034-041-042-049-050-058-059-191400-
EAST CENTRAL INDIANA

CITY           SKY/WX    TMP DP  RH WIND       PRES   REMARKS
MUNCIE         CLOUDY    26  21  81 NW7       30.27R WCI  18

$$

INZ060-061-067>069-081>083-085>088-191400-
SOUTHWEST INDIANA

CITY           SKY/WX    TMP DP  RH WIND       PRES   REMARKS
EVANSVILLE     CLOUDY    32  24  72 NE7       30.33R WCI  26
HUNTINGBURG *+ MOCLDY    27  21  80 NE5       30.33R WCI  21
WASHINGTON +   MOCLDY    26  20  78 N6        30.31R WCI  20

$$

INZ062-063-066-070>080-084-089>092-191400-
SOUTH CENTRAL AND SOUTHEAST INDIANA

CITY           SKY/WX    TMP DP  RH WIND       PRES   REMARKS
BLOOMINGTON    CLOUDY    25  21  85 CALM      30.28R
SEYMOUR +      CLEAR     23  19  86 CALM      30.30

$$




USA.gov is the U.S. government's official web portal to all federal, state and local government web resources and services.